Location: George Washington National Forest Helicopter Landing Site
(38.6463°N, 79.0851°W)
Time: 21:37:13
(UTC-04:00)

Tiros 1 despin weight - Pass Details

Date: 26 August 2019
Orbit: 594 x 642 km, 48.2° (Epoch: 19 September)

Event Time Altitude Azimuth Distance (km) Brightness Sun altitude
Rises 03:55:42 0° 303° (WNW) 2,860 - -28.7°
Reaches altitude 10° 03:58:07 10° 311° (NW) 1,962 - -28.4°
Exits shadow 04:01:24 35° 351° (N) 996 ? -27.9°
Maximum altitude 04:02:22 40° 22° (NNE) 917 ? -27.8°
Drops below altitude 10° 04:06:40 10° 92° (E) 1,987 ? -27.2°
Sets 04:09:07 0° 100° (E) 2,900 ? -26.8°
